This demonstration page uses our WeatherBlox Daily Observations layout. Learn more.

Hourly Observations for December 29, 2016

Temp ( °F °C ) Dew Point ( °F °C ) Humidity (%) Winds ( mph kmh ) Pressure ( in mb ) Visibility ( mi km ) Precip ( " mm )
12:15 am 00:15 Clear 34 1.3 12 -10.9 40 40 WNW 20 31 30.36 1028 10 16.0934 0 0
12:35 am 00:35 Clear 34 1.3 12 -10.9 40 40 WNW 20 31 30.36 1028 10 16.0934 0 0
12:55 am 00:55 Clear 34 1 13 -10.7 42 42 WNW 18 30 30.36 1028 10 16.0934 0 0
1:15 am 01:15 Clear 33 0.7 13 -10.5 43 43 WNW 17 28 30.39 1029 10 16.0934 0 0
1:35 am 01:35 Clear 32 0.1 13 -10.3 46 46 WNW 14 22 30.39 1029 10 16.0934 0 0
1:55 am 01:55 Clear 32 0 13 -10.3 46 46 WNW 14 22 30.39 1029 10 16.0934 0 0
2:15 am 02:15 Clear 31 -0.5 14 -10.2 48 48 WNW 12 19 30.39 1029 10 16.0934 0 0
2:35 am 02:35 Clear 29 -1.8 14 -10.1 54 54 W 10 17 30.45 1031 10 16.0934 0 0
2:55 am 02:55 Clear 27 -2.6 13 -10.5 55 55 W 14 22 30.45 1031 10 16.0934 0 0
3:15 am 03:15 Clear 27 -2.6 13 -10.4 55 55 W 13 20 30.45 1031 10 16.0934 0 0
3:35 am 03:35 Clear 26 -3.2 13 -10.3 58 58 W 12 19 30.45 1031 10 16.0934 0 0
3:55 am 03:55 Clear 26 -3.3 13 -10.4 58 58 W 13 20 30.45 1031 10 16.0934 0 0
4:15 am 04:15 Clear 27 -2.8 13 -10.5 56 56 W 13 20 30.45 1031 10 16.0934 0 0
4:35 am 04:35 Clear 27 -3 13 -10.7 56 56 W 13 20 30.45 1031 10 16.0934 0 0
4:55 am 04:55 Clear 27 -3 13 -10.8 55 55 W 13 20 30.45 1031 10 16.0934 0 0
5:15 am 05:15 Clear 26 -3.4 12 -11 56 56 W 10 17 30.45 1031 10 16.0934 0 0
5:35 am 05:35 Clear 27 -2.7 12 -10.9 54 54 W 13 20 30.48 1032 10 16.0934 0 0
5:55 am 05:55 Clear 27 -2.9 12 -11.3 53 53 W 10 17 30.48 1032 10 16.0934 0 0
6:15 am 06:15 Clear 24 -4.5 12 -11.2 60 60 W 10 17 30.5 1033 10 16.0934 0 0
6:35 am 06:35 Clear 24 -4.2 12 -11.1 59 59 W 12 19 30.5 1033 10 16.0934 0 0
6:55 am 06:55 Clear 25 -4 11 -11.4 57 57 W 10 17 30.5 1033 10 16.0934 0 0
7:15 am 07:15 Clear 25 -3.7 11 -11.4 56 56 W 10 17 30.53 1034 10 16.0934 0 0
7:35 am 07:35 Clear 23 -5.1 12 -11.3 62 62 W 9 15 30.53 1034 10 16.0934 0 0
7:55 am 07:55 Clear 23 -4.8 12 -11.2 61 61 W 12 19 30.53 1034 10 16.0934 0 0
8:15 am 08:15 Sunny 23 -4.8 11 -11.5 60 60 W 10 17 30.53 1034 10 16.0934 0 0
8:35 am 08:35 Sunny 25 -4.1 12 -11.3 58 58 W 12 19 30.53 1034 10 16.0934 0 0
8:55 am 08:55 Sunny 27 -2.9 11 -11.4 52 52 W 13 20 30.56 1035 10 16.0934 0 0
9:15 am 09:15 Sunny 27 -2.7 13 -10.8 54 54 W 13 20 30.53 1034 10 16.0934 0 0
9:35 am 09:35 Sunny 30 -1.2 12 -11.2 47 47 WNW 12 19 30.53 1034 10 16.0934 0 0
9:55 am 09:55 Sunny 32 0 11 -11.5 42 42 WNW 14 22 30.56 1035 10 16.0934 0 0
10:15 am 10:15 Sunny 35 1.5 9 -12.6 35 35 WNW 16 26 30.53 1034 10 16.0934 0 0
10:35 am 10:35 Sunny 37 2.7 9 -12.7 31 31 WNW 17 28 30.53 1034 10 16.0934 0 0
10:55 am 10:55 Sunny 38 3.2 9 -12.7 30 30 NW 18 30 30.53 1034 10 16.0934 0 0
11:15 am 11:15 Sunny 38 3.3 9 -13 29 29 NW 20 31 30.53 1034 10 16.0934 0 0
11:35 am 11:35 Sunny 39 4 9 -12.6 29 29 NW 18 30 30.5 1033 10 16.0934 0 0
11:55 am 11:55 Sunny 39 4.1 9 -13 28 28 NW 18 30 30.5 1033 10 16.0934 0 0
12:15 pm 12:15 Sunny 40 4.6 9 -12.8 27 27 NW 24 39 30.48 1032 10 16.0934 0 0
12:35 pm 12:35 Sunny 42 5.4 9 -12.8 26 26 NW 21 33 30.48 1032 10 16.0934 0 0
12:55 pm 12:55 Sunny 42 5.3 8 -13.2 25 25 WNW 18 30 30.48 1032 10 16.0934 0 0
1:15 pm 13:15 Sunny 42 5.7 7 -13.7 23 23 WNW 17 28 30.48 1032 10 16.0934 0 0
1:35 pm 13:35 Sunny 43 6 8 -13.6 23 23 NW 18 30 30.45 1031 10 16.0934 0 0
1:55 pm 13:55 Sunny 44 6.5 8 -13.6 22 22 WNW 14 22 30.42 1030 10 16.0934 0 0
2:15 pm 14:15 Sunny 44 6.5 6 -14.4 21 21 WNW 15 24 30.42 1030 10 16.0934 0 0
2:35 pm 14:35 Sunny 44 6.9 6 -14.4 20 20 WNW 15 24 30.42 1030 10 16.0934 0 0
2:55 pm 14:55 Sunny 45 7.2 6 -14.5 20 20 NW 15 24 30.42 1030 10 16.0934 0 0
3:15 pm 15:15 Sunny 45 7.2 6 -14.5 20 20 NW 21 33 30.42 1030 10 16.0934 0 0
3:35 pm 15:35 Sunny 45 7.1 6 -14.4 20 20 NW 14 22 30.42 1030 10 16.0934 0 0
3:55 pm 15:55 Sunny 44 6.8 7 -14 21 21 NW 17 28 30.42 1030 10 16.0934 0 0
4:15 pm 16:15 Sunny 44 6.5 7 -13.8 22 22 NW 14 22 30.42 1030 10 16.0934 0 0
4:35 pm 16:35 Sunny 42 5.8 8 -13.5 24 24 NW 10 17 30.45 1031 10 16.0934 0 0
4:55 pm 16:55 Sunny 40 4.7 8 -13.3 26 26 WNW 12 19 30.42 1030 10 16.0934 0 0
5:15 pm 17:15 Sunny 38 3.5 9 -12.9 29 29 WNW 7 11 30.42 1030 10 16.0934 0 0
5:35 pm 17:35 Clear 34 1.1 10 -12.1 37 37 WNW 6 9 30.45 1031 10 16.0934 0 0
5:55 pm 17:55 Clear 34 0.9 10 -12.3 37 37 W 7 11 30.45 1031 10 16.0934 0 0
6:15 pm 18:15 Clear 34 0.9 10 -12.5 36 36 WNW 6 9 30.45 1031 10 16.0934 0 0
6:35 pm 18:35 Clear 32 0 10 -12.1 40 40 W 7 11 30.45 1031 10 16.0934 0 0
6:55 pm 18:55 Clear 30 -0.9 9 -12.6 41 41 W 8 13 30.48 1032 10 16.0934 0 0
7:15 pm 19:15 Clear 29 -1.6 10 -12.1 45 45 W 8 13 30.48 1032 10 16.0934 0 0
7:35 pm 19:35 Clear 31 -0.8 8 -13.4 38 38 W 6 9 30.48 1032 10 16.0934 0 0
7:55 pm 19:55 Clear 31 -0.5 7 -13.8 36 36 W 8 13 30.48 1032 10 16.0934 0 0
8:15 pm 20:15 Clear 29 -1.7 8 -13.1 42 42 WNW 6 9 30.48 1032 10 16.0934 0 0
8:35 pm 20:35 Clear 25 -3.9 10 -12.3 52 52 Calm 30.48 1032 10 16.0934 0 0
8:55 pm 20:55 Clear 26 -3.4 11 -11.6 53 53 WNW 3 6 30.45 1031 10 16.0934 0 0
9:15 pm 21:15 Clear 27 -2.6 11 -11.7 50 50 SW 5 7 30.45 1031 10 16.0934 0 0
9:35 pm 21:35 Clear 28 -2.5 11 -11.7 50 50 Calm 30.45 1031 10 16.0934 0 0
9:55 pm 21:55 Clear 26 -3.2 11 -11.5 53 53 SW 3 6 30.45 1031 10 16.0934 0 0
10:15 pm 22:15 Clear 27 -2.7 11 -11.8 50 50 WSW 5 7 30.45 1031 10 16.0934 0 0
10:35 pm 22:35 Clear 29 -1.6 10 -12.5 44 44 SW 5 7 30.45 1031 10 16.0934 0 0
10:55 pm 22:55 Clear 28 -2.1 10 -12.5 45 45 SW 8 13 30.42 1030 10 16.0934 0 0
11:15 pm 23:15 Clear 28 -2 9 -12.7 44 44 SSW 8 13 30.42 1030 10 16.0934 0 0
11:35 pm 23:35 Clear 27 -2.9 10 -12.5 48 48 SSW 8 13 30.39 1029 10 16.0934 0 0
11:55 pm 23:55 Clear 27 -2.8 9 -12.6 47 47 SSW 6 9 30.39 1029 10 16.0934 0 0

Powered by AerisWeather